Regional Weather Roundup
Issued by NWS

Home | Current Version | Previous Version | Graphics & Text | Print | Product List | Glossary On
Versions: 1 2 3 4 5 6 7 8 9 10 11 12 13 14 15 16 17 18 19 20 21 22 23 24 25 26 27 28 29 30 31 32 33 34 35 36 37 38 39 40 41 42 43 44 45 46 47 48 49 50
000
ASUS44 KMEG 302300
RWRTN
TENNESSEE HOURLY STATE WEATHER ROUNDUP
NATIONAL WEATHER SERVICE MEMPHIS TN
600 PM CDT WED JUL 30 2014

TNZ002-004-019-021-049-052-054-088>092-310000-
WEST TENNESSEE

CITY           SKY/WX    TMP DP  RH WIND       PRES   REMARKS
MEMPHIS INTL   CLOUDY    80  57  45 W7        30.07F
NWS MEMPHIS      N/A     80 N/A N/A MISG        N/A
JACKSON        PTSUNNY   79  58  48 W3        30.07F
DYERSBURG      CLOUDY    79  55  44 W3        30.08F
UNION CITY     PTSUNNY   75  61  60 CALM      30.07S
PARIS          SUNNY     73  57  56 W3        30.09F
LEXINGTON      SUNNY     77  61  57 CALM      30.07F
SAVANNAH       SUNNY     81  59  47 NE3       30.08F
$$

TNZ008-025-027-028-033-062-065-066-310000-
NORTH MIDDLE TENNESSEE

CITY           SKY/WX    TMP DP  RH WIND       PRES   REMARKS
NASHVILLE      CLOUDY    79  55  43 N7        30.07F
CLARKSVILLE    PTSUNNY   79  54  41 W7        30.07F
COOKEVILLE     SUNNY     75  64  69 CALM      30.09S
CROSSVILLE     CLOUDY    72  57  59 NW3       30.12F
$$

TNZ061-075-076-078-094-096-097-310000-
SOUTH MIDDLE TENNESSEE

CITY           SKY/WX    TMP DP  RH WIND       PRES   REMARKS
FAYETTEVILLE   SUNNY     77  55  47 N9        30.08F
TULLAHOMA      SUNNY     75  55  50 NE5       30.10S
WINCHESTER     SUNNY     79  57  47 N7        30.09S
MCMINNVILLE    SUNNY     75  61  60 CALM      30.10S
COLUMBIA       SUNNY     79  57  47 CALM      30.07F
SHELBYVILLE    SUNNY     79  63  57 NE3       30.09S
$$

TNZ017-018-042-046-047-310000-
NORTHEAST TENNESSEE

CITY           SKY/WX    TMP DP  RH WIND       PRES   REMARKS
TRI CITIES     MOSUNNY   77  51  40 N3        30.09S
ELIZABETHTON   CLEAR     73  54  49 W3          N/A
$$

TNZ012-013-036-069-073-074-310000-
CENTRAL EAST TENNESSEE

CITY           SKY/WX    TMP DP  RH WIND       PRES   REMARKS
KNOXVILLE      CLOUDY    74  56  53 E6        30.07S
OAK RIDGE      CLOUDY    76  56  49 CALM      30.09S
GATLINBURG     CLEAR     72  59  64 CALM      30.08S
$$

TNZ083-085-099-310000-
SOUTHEAST TENNESSEE

CITY           SKY/WX    TMP DP  RH WIND       PRES   REMARKS
CHATTANOOGA    PTSUNNY   80  50  34 NE9       30.07S
$$

SKY/WX REPORTED AS FAIR MEANS FEW OR NO CLOUDS BELOW
12 THOUSAND FEET.



USA.gov is the U.S. government's official web portal to all federal, state and local government web resources and services.